Terminal Aerodrome Forecast
Issued by NWS

Home | Current Version | Previous Version | Text Only | Print | Product List | Glossary On
Versions: 1 2 3 4 5 6 7 8 9 10 11 12 13 14 15 16 17 18 19 20 21 22 23 24 25 26 27 28 29 30 31 32 33 34
000
FTAK31 PANC 252331
TAFADL
TAF
PADL 252331Z 2600/2624 18011G20KT P6SM BKN035
     FM260600 13010KT P6SM -SHRA BKN025
     FM260900 11011KT P6SM -RA BKN004 OVC020
     FM262100 10009KT P6SM VCSH OVC025=

USA.gov is the U.S. government's official web portal to all federal, state and local government web resources and services.